Station BZST2 - 8779749 - SPI Brazos Santiago, TX Image indicating link to RSS feed of recent meteorological observations for station BZST2


Conditions at BZST2 as of
(1:18 pm CDT)
1818 GMT on 05/30/2024:
     

Click on the graph icon in the table below to see a time series plot of the last five days of that observation.

5-day plot - Wind Direction Wind Direction (WDIR): SE ( 130 deg true )
5-day plot - Wind Speed Wind Speed (WSPD): 11.1 kts
5-day plot - Wind Gust Wind Gust (GST): 12.0 kts
5-day plot - Atmospheric Pressure Atmospheric Pressure (PRES):29.83 in
5-day plot - Air Temperature Air Temperature (ATMP): 83.1 °F
5-day plot - Water Temperature Water Temperature (WTMP): 80.4 °F
5-day plot - Wind Speed at 10 Meters Wind Speed at 10 meters (WSPD10M): 11.7 kts
5-day plot - Wind Speed at 20 Meters Wind Speed at 20 meters (WSPD20M): 11.7 kts
5-day plot -  Wind Speed, Wind Gust and Atmospheric Pressure Combined plot of Wind Speed, Gust, and Air Pressure
Previous observations
TIME
(CDT)
5-day plot - Wind Direction
WDIR
 
5-day plot - Wind Speed
WSPD
kts
5-day plot - Wind Gust
GST
kts
5-day plot - Wave Height
WVHT
ft
5-day plot - Dominant Wave Period
DPD
sec
5-day plot - Average Wave Period
APD
sec
5-day plot - Mean Wave Direction
MWD
 
5-day plot - Atmospheric Pressure
PRES
in
5-day plot - Pressure Tendency
PTDY
in
5-day plot - Air Temperature
ATMP
°F
5-day plot - Water Temperature
WTMP
°F
5-day plot - Dew Point
DEWP
°F
5-day plot - Salinity
SAL
psu
5-day plot - Visibility
VIS
nmi
5-day plot - Tide (above MLLW)
TIDE
ft
2024-05-30 01:12 pm SE 11.1 12.0----29.83- 83.3 80.4----
2024-05-30 01:06 pm SE 9.9 12.0----29.84- 83.1 80.8----
2024-05-30 01:00 pm SE 9.9 13.0----29.84-0.02 83.1 81.0----
2024-05-30 12:54 pm SE 9.9 12.0----29.84- 83.1 81.3----
2024-05-30 12:48 pm SE 9.9 12.0----29.84-- 81.3----
2024-05-30 12:42 pm SE 9.9 11.1----29.85-- 81.9----
2024-05-30 12:36 pm SE 9.9 12.0----29.85-- 81.7----
2024-05-30 12:30 pm SE 12.0 13.0----29.85- 82.8 81.5----
2024-05-30 12:24 pm SE 12.0 13.0----29.85- 82.9 81.3----
2024-05-30 12:18 pm SE 12.0 14.0----29.85- 83.1 81.3----
2024-05-30 12:12 pm SE 12.0 13.0----29.85- 82.9 81.1----
2024-05-30 12:06 pm SE 12.0 13.0----29.85- 83.1 81.1----
2024-05-30 12:00 pm SE 12.0 14.0----29.85+0.00 83.3 81.0----
2024-05-30 11:54 am SE 11.1 13.0----29.85- 83.1 81.0----
2024-05-30 11:48 am SE 11.1 13.0----29.85- 83.1 81.0----
2024-05-30 11:42 am SE 11.1 14.0----29.85- 83.3 81.0----
2024-05-30 11:36 am SE 11.1 15.0----29.86- 83.3 81.0----
2024-05-30 11:30 amSSE 11.1 14.0----29.86- 83.1 81.0----
2024-05-30 11:24 am SE 11.1 13.0----29.86- 82.9 81.0----
2024-05-30 11:18 amSSE 9.9 12.0----29.86- 83.1 81.0----
2024-05-30 11:12 amSSE 11.1 14.0----29.86- 83.3 81.0----
2024-05-30 11:06 am SE 11.1 13.0----29.86- 83.3 81.0----
2024-05-30 11:00 am SE 11.1 13.0----29.87+0.02 83.1 81.1----
2024-05-30 10:54 am SE 9.9 12.0----29.87- 83.3 81.0----
2024-05-30 10:48 amSSE 8.9 9.9----29.87-- 81.0----
2024-05-30 10:42 amSSE 8.9 12.0----29.87-- 81.0----
2024-05-30 10:36 amSSE 8.9 11.1----29.87-- 81.0----
2024-05-30 10:30 amSSE 9.9 12.0----29.87- 83.7 81.0----
2024-05-30 10:24 amSSE 9.9 12.0----29.86- 83.3 81.0----
2024-05-30 10:18 amSSE 11.1 13.0----29.86- 83.3 80.8----
2024-05-30 10:12 amSSE 8.9 11.1----29.86- 82.9 80.8----
2024-05-30 10:06 amSSE 8.0 11.1----29.86- 83.1 80.8----
2024-05-30 10:00 amSSE 8.9 11.1----29.86+0.02 82.9 80.8----
2024-05-30 09:54 am SE 8.9 11.1----29.86- 82.9 80.8----
2024-05-30 09:48 am SE 8.9 11.1----29.86- 82.4 80.8----
2024-05-30 09:42 am SE 9.9 11.1----29.86- 82.4 80.6----
2024-05-30 09:36 am SE 9.9 12.0----29.85- 82.2 80.8----
2024-05-30 09:30 am SE 11.1 12.0----29.85- 82.2 80.8----
2024-05-30 09:24 am SE 9.9 12.0----29.85- 82.2 80.8----
2024-05-30 09:18 am SE 11.1 13.0----29.85- 82.2 81.0----
2024-05-30 09:12 am SE 11.1 12.0----29.85- 82.2 81.0----
2024-05-30 09:06 am SE 11.1 13.0----29.85- 82.2 81.0----
2024-05-30 09:00 am SE 11.1 13.0----29.85+0.03 82.4 81.0----
2024-05-30 08:54 am SE 12.0 14.0----29.85- 82.2 81.0----
2024-05-30 08:48 am SE 12.0 14.0----29.85- 82.2 81.1----
2024-05-30 08:42 am SE 11.1 14.0----29.85- 82.0 81.1----
2024-05-30 08:36 am SE 12.0 14.0----29.85- 82.2 81.1----
2024-05-30 08:30 am SE 13.0 15.0----29.85- 82.0 81.1----
2024-05-30 08:24 am SE 11.1 13.0----29.85- 81.9 81.3----
2024-05-30 08:18 am SE 8.9 12.0----29.85- 81.7 81.3----
2024-05-30 08:12 am SE 11.1 13.0----29.85- 81.9 81.3----
2024-05-30 08:06 am SE 11.1 12.0----29.85- 81.9 81.3----
2024-05-30 08:00 am SE 8.9 11.1----29.85- 81.5 81.5----
2024-05-30 07:54 am SE 8.9 9.9----29.85- 81.5 81.5----
2024-05-30 07:48 amESE 8.9 11.1----29.85- 81.5 81.3----
2024-05-30 07:42 amESE 8.9 9.9----29.85- 81.3 81.1----
2024-05-30 07:36 amESE 8.9 11.1----29.84- 81.3 81.1----
2024-05-30 07:30 amESE 8.9 11.1----29.84- 81.5 81.1----
2024-05-30 07:24 amESE 8.9 9.9----29.84- 81.3 81.1----
2024-05-30 07:18 amESE 8.9 9.9----29.84- 81.3 81.1----
2024-05-30 07:12 amESE 8.9 11.1----29.83- 81.3 81.3----
2024-05-30 07:06 amESE 8.9 9.9----29.83- 81.3 81.3----
2024-05-30 07:00 amESE 8.0 8.9----29.84- 81.3 81.1----
2024-05-30 06:54 amESE 8.9 9.9----29.83- 81.5 81.1----
2024-05-30 06:48 am SE 8.9 11.1----29.83-- 81.1----
2024-05-30 06:42 am SE 8.9 11.1----29.83-- 81.1----
2024-05-30 06:36 am SE 8.9 11.1----29.83-- 81.1----
2024-05-30 06:30 am SE 8.9 11.1----29.83- 81.5 81.3----
2024-05-30 06:24 am SE 8.0 11.1----29.83- 81.5 81.3----
2024-05-30 06:18 am SE 8.9 11.1----29.83- 81.5 81.3----
2024-05-30 06:12 am SE 9.9 12.0----29.83- 81.5 81.3----
2024-05-30 06:06 am SE 9.9 12.0----29.83- 81.5 81.3----
2024-05-30 06:00 amSSE 9.9 12.0----29.83- 81.5 81.3----
2024-05-30 05:54 amSSE 9.9 12.0----29.83- 81.5 81.3----
2024-05-30 05:48 amSSE 9.9 12.0----29.83- 81.5 81.5----
2024-05-30 05:42 amSSE 9.9 12.0----29.83- 81.5 81.5----
2024-05-30 05:36 amSSE 8.9 12.0----29.83- 81.5 81.5----
2024-05-30 05:30 amSSE 9.9 12.0----29.83- 81.5 81.3----
2024-05-30 05:24 am SE 9.9 13.0----29.83- 81.5 81.3----
2024-05-30 05:18 am SE 9.9 12.0----29.83- 81.5 81.1----
2024-05-30 05:12 amSSE 9.9 12.0----29.83- 81.5 81.3----
2024-05-30 05:06 amSSE 9.9 12.0----29.83- 81.5 81.1----
2024-05-30 05:00 am SE 9.9 12.0----29.83-0.03 81.5 81.1----
2024-05-30 04:54 am SE 11.1 13.0----29.84- 81.7 81.1----
2024-05-30 04:48 am SE 11.1 13.0----29.83- 81.7 81.0----
2024-05-30 04:42 am SE 11.1 14.0----29.83- 81.9 81.0----
2024-05-30 04:36 amSSE 11.1 13.0----29.83- 81.9 81.0----
2024-05-30 04:30 amSSE 12.0 14.0----29.83- 81.7 81.0----
2024-05-30 04:24 amSSE 13.0 15.9----29.83- 81.7 81.0----
2024-05-30 04:18 amSSE 13.0 15.0----29.83- 81.7 81.0----
2024-05-30 04:12 amSSE 12.0 14.0----29.83- 81.7 81.0----
2024-05-30 04:06 amSSE 12.0 14.0----29.83- 81.7 81.0----
2024-05-30 04:00 amSSE 12.0 15.0----29.83-0.05 81.7 81.0----
2024-05-30 03:54 amSSE 13.0 15.9----29.83- 81.7 80.8----
2024-05-30 03:48 amSSE 13.0 15.9----29.83-- 80.8----
2024-05-30 03:42 am SE 12.0 15.9----29.84-- 80.4----
2024-05-30 03:36 amSSE 12.0 15.0----29.84-- 80.6----
2024-05-30 03:30 amSSE 13.0 15.9----29.84- 81.7 80.6----
2024-05-30 03:24 am SE 14.0 15.9----29.84- 81.9 80.4----
2024-05-30 03:18 am SE 14.0 15.9----29.84- 81.9 80.4----
2024-05-30 03:12 am SE 13.0 15.9----29.85- 81.9 80.4----
2024-05-30 03:06 am SE 15.0 17.1----29.85- 82.0 80.2----
2024-05-30 03:00 am SE 15.0 17.1----29.85-0.04 81.9 80.2----
2024-05-30 02:54 am SE 13.0 17.1----29.85- 81.9 80.2----
2024-05-30 02:48 am SE 14.0 17.1----29.85-- 80.4----
2024-05-30 02:42 am SE 14.0 17.1----29.85-- 80.2----
2024-05-30 02:36 am SE 15.0 15.9----29.85-- 80.2----
2024-05-30 02:30 am SE 14.0 15.9----29.85- 81.9 80.2----
2024-05-30 02:24 am SE 14.0 15.9----29.86- 81.9 80.2----
2024-05-30 02:18 am SE 13.0 15.9----29.86- 81.9 80.2----
2024-05-30 02:12 am SE 15.0 18.1----29.86- 82.0 80.2----
2024-05-30 02:06 am SE 15.9 18.1----29.86- 82.2 80.2----
2024-05-30 02:00 am SE 15.0 17.1----29.87-0.01 82.2 80.2----
2024-05-30 01:54 am SE 15.9 18.1----29.87- 82.0 80.2----
2024-05-30 01:48 am SE 15.0 17.1----29.87- 82.0 80.2----
2024-05-30 01:42 am SE 15.0 17.1----29.87- 82.0 80.2----
2024-05-30 01:36 am SE 14.0 17.1----29.88- 82.0 80.2----
2024-05-30 01:30 am SE 15.9 17.1----29.88- 82.0 80.2----
2024-05-30 01:24 am SE 14.0 17.1----29.88- 82.0 80.2----
2024-05-30 01:18 amESE 13.0 15.0----29.88- 82.0 80.2----
2024-05-30 01:12 amESE 12.0 14.0----29.88- 81.9 80.2----
2024-05-30 01:06 amESE 12.0 14.0----29.88- 81.9 80.2----
2024-05-30 01:00 amESE 12.0 14.0----29.88+0.04 82.0 80.2----
2024-05-30 12:54 amESE 12.0 14.0----29.88- 82.0 80.2----
2024-05-30 12:48 amESE 12.0 13.0----29.88-- 80.2----
2024-05-30 12:42 amESE 12.0 13.0----29.88-- 80.2----
2024-05-30 12:36 amESE 12.0 13.0----29.88-- 80.2----
2024-05-30 12:30 am SE 12.0 13.0----29.88- 81.9 80.2----
2024-05-30 12:24 am SE 12.0 13.0----29.88- 81.9 80.2----
2024-05-30 12:18 amESE 11.1 12.0----29.88- 81.9 80.2----
2024-05-30 12:12 amESE 11.1 12.0----29.89- 81.9 80.2----
2024-05-30 12:06 amESE 11.1 12.0----29.89- 81.9 80.1----
2024-05-30 12:00 amESE 11.1 12.0----29.89+0.06 81.9 80.1----
2024-05-29 11:54 pmESE 11.1 13.0----29.89- 81.9 80.1----
2024-05-29 11:48 pmESE 11.1 12.0----29.89-- 80.1----
2024-05-29 11:42 pmESE 11.1 12.0----29.89-- 80.1----
2024-05-29 11:36 pmESE 11.1 13.0----29.89-- 80.1----
2024-05-29 11:30 pmESE 11.1 12.0----29.89- 81.9 80.1----
2024-05-29 11:24 pmESE 11.1 13.0----29.89- 82.0 80.1----
2024-05-29 11:18 pmESE 11.1 12.0----29.89- 81.9 80.1----
2024-05-29 11:12 pmESE 11.1 13.0----29.88- 82.0 80.1----
2024-05-29 11:06 pmESE 12.0 13.0----29.88- 82.2 80.2----
2024-05-29 11:00 pmESE 12.0 14.0----29.88+0.05 82.2 80.2----
2024-05-29 10:54 pmESE 11.1 12.0----29.88- 82.2 80.2----
2024-05-29 10:48 pmESE 12.0 15.0----29.88- 82.2 80.2----
2024-05-29 10:42 pmESE 13.0 15.0----29.88- 82.2 80.1----
2024-05-29 10:36 pmESE 13.0 15.0----29.87- 82.2 79.9----
2024-05-29 10:30 pmESE 14.0 15.0----29.86- 82.2 79.7----
2024-05-29 10:24 pmESE 13.0 15.0----29.86- 82.2 79.7----
2024-05-29 10:18 pmESE 14.0 15.9----29.86- 82.2 79.9----
2024-05-29 10:12 pmESE 15.0 17.1----29.85- 82.4 79.9----
2024-05-29 10:06 pmESE 14.0 15.9----29.85- 82.4 79.9----
2024-05-29 10:00 pmESE 13.0 17.1----29.85+0.02 82.2 80.1----
2024-05-29 09:54 pmESE 14.0 17.1----29.85- 82.2 80.2----
2024-05-29 09:48 pmESE 15.0 17.1----29.84- 82.2 80.2----
2024-05-29 09:42 pmESE 15.9 17.1----29.84- 82.2 80.2----
2024-05-29 09:36 pmESE 15.0 18.1----29.84- 82.2 80.1----
2024-05-29 09:30 pmESE 15.9 18.1----29.84- 82.2 80.1----
2024-05-29 09:24 pmESE 15.0 17.1----29.84- 82.2 79.9----
2024-05-29 09:18 pmESE 14.0 15.9----29.84- 82.2 80.1----
2024-05-29 09:12 pmESE 15.0 17.1----29.84- 82.2 80.1----
2024-05-29 09:06 pmESE 15.0 17.1----29.84- 82.4 80.2----
2024-05-29 09:00 pmESE 15.0 17.1----29.83+0.00 82.4 80.1----
2024-05-29 08:54 pmESE 15.0 17.1----29.83- 82.4 80.2----
2024-05-29 08:48 pmESE 15.0 17.1----29.83- 82.2 80.2----
2024-05-29 08:42 pmESE 14.0 15.0----29.83- 82.2 80.2----
2024-05-29 08:36 pmESE 14.0 15.9----29.83- 82.2 80.4----
2024-05-29 08:30 pmESE 14.0 17.1----29.83- 82.4 80.6----
2024-05-29 08:24 pmESE 13.0 15.9----29.83- 82.2 80.8----
2024-05-29 08:18 pmESE 14.0 15.9----29.83- 82.4 80.8----
2024-05-29 08:12 pmESE 14.0 15.0----29.83- 82.4 80.8----
2024-05-29 08:06 pmESE 14.0 15.9----29.83- 82.4 80.8----
2024-05-29 08:00 pmESE 14.0 15.9----29.83-0.01 82.4 80.8----
2024-05-29 07:54 pmESE 14.0 15.9----29.83- 82.6 80.8----
2024-05-29 07:48 pmESE 14.0 15.9----29.83- 82.6 80.8----
2024-05-29 07:42 pmESE 15.0 17.1----29.83- 82.6 80.8----
2024-05-29 07:36 pmESE 14.0 17.1----29.84- 82.6 80.8----
2024-05-29 07:30 pmESE 14.0 15.0----29.83- 82.6 80.8----
2024-05-29 07:24 pmESE 13.0 15.0----29.83- 82.6 80.8----
2024-05-29 07:18 pmESE 14.0 15.9----29.83- 82.6 80.8----
2024-05-29 07:12 pmESE 14.0 15.9----29.83- 82.8 80.8----
2024-05-29 07:06 pmESE 13.0 15.0----29.83- 82.6 80.8----
2024-05-29 07:00 pmESE 13.0 15.0----29.83-0.03 82.6 80.8----
2024-05-29 06:54 pmESE 13.0 15.0----29.83- 82.6 80.8----
2024-05-29 06:48 pmESE 13.0 15.9----29.83-- 81.0----
2024-05-29 06:42 pmESE 14.0 15.0----29.83-- 81.0----
2024-05-29 06:36 pmESE 14.0 15.9----29.83-- 81.0----
2024-05-29 06:30 pmESE 13.0 15.9----29.83- 82.8 81.0----
2024-05-29 06:24 pmESE 13.0 15.0----29.83- 82.8 81.1----
2024-05-29 06:18 pm E 13.0 14.0----29.83- 82.8 80.8----
2024-05-29 06:12 pm E 12.0 14.0----29.84- 82.8 80.2----
2024-05-29 06:06 pmESE 12.0 13.0----29.84- 82.8 80.2----
2024-05-29 06:00 pmESE 13.0 14.0----29.84-0.05 82.8 80.2----
2024-05-29 05:54 pmESE 12.0 14.0----29.84- 82.6 80.2----
2024-05-29 05:48 pm E 12.0 14.0----29.84- 82.6 80.2----
2024-05-29 05:42 pm E 12.0 13.0----29.84- 82.4 80.4----
2024-05-29 05:36 pm E 11.1 12.0----29.84- 82.4 80.4----
2024-05-29 05:30 pm E 9.9 11.1----29.85- 82.4 80.4----
2024-05-29 05:24 pm E 9.9 12.0----29.85- 82.4 80.2----
2024-05-29 05:18 pm E 11.1 12.0----29.85- 82.4 80.2----
2024-05-29 05:12 pm E 9.9 12.0----29.85- 82.4 80.4----
2024-05-29 05:06 pm E 11.1 12.0----29.85- 82.4 80.6----
2024-05-29 05:00 pm E 9.9 12.0----29.84-0.06 82.4 80.4----
2024-05-29 04:54 pmESE 9.9 11.1----29.84- 82.4 80.2----
2024-05-29 04:48 pmESE 9.9 11.1----29.85- 82.4 80.1----
2024-05-29 04:42 pmESE 9.9 11.1----29.85- 82.4 80.1----
2024-05-29 04:36 pmESE 9.9 12.0----29.85- 82.6 80.1----
2024-05-29 04:30 pmESE 11.1 12.0----29.85- 82.6 80.1----
2024-05-29 04:24 pmESE 9.9 11.1----29.85- 82.6 79.9----
2024-05-29 04:18 pmESE 11.1 12.0----29.85- 82.9 79.9----
2024-05-29 04:12 pmESE 9.9 11.1----29.86- 82.6 80.1----
2024-05-29 04:06 pmESE 8.9 9.9----29.86- 82.6 79.9----
2024-05-29 04:00 pm SE 8.9 11.1----29.86-0.07 82.9 79.5----
2024-05-29 03:54 pmESE 8.9 9.9----29.87- 82.8 79.7----
2024-05-29 03:48 pmESE 8.9 9.9----29.87-- 79.5----
2024-05-29 03:42 pmESE 8.9 9.9----29.87-- 79.5----
2024-05-29 03:36 pmESE 8.0 8.9----29.87-- 79.7----
2024-05-29 03:30 pmESE 8.0 8.9----29.88- 82.4 80.1----
2024-05-29 03:24 pmESE 8.0 8.9----29.88- 82.4 79.9----
2024-05-29 03:18 pmESE 8.0 8.9----29.88- 82.4 79.9----
2024-05-29 03:12 pmESE 7.0 8.0----29.88- 82.4 79.9----
2024-05-29 03:06 pmESE 8.0 8.9----29.88- 82.4 79.7----
2024-05-29 03:00 pm SE 7.0 8.0----29.88-0.04 82.6 79.5----
2024-05-29 02:54 pm SE 8.0 8.9----29.89- 82.6 79.5----
2024-05-29 02:48 pm SE 8.0 9.9----29.89- 82.8 79.5----
2024-05-29 02:42 pm SE 8.9 9.9----29.89- 82.8 79.5----
2024-05-29 02:36 pm SE 8.9 9.9----29.89- 82.8 79.5----
2024-05-29 02:30 pm SE 8.0 11.1----29.90- 83.1 79.2----
2024-05-29 02:24 pm SE 8.9 11.1----29.90- 83.1 79.2----
2024-05-29 02:18 pm SE 8.9 12.0----29.90- 83.1 79.0----
2024-05-29 02:12 pm SE 9.9 12.0----29.90- 83.1 79.0----
2024-05-29 02:06 pm SE 8.0 9.9----29.90- 82.9 79.3----
2024-05-29 02:00 pm SE 8.9 11.1----29.90- 82.9 79.2----
2024-05-29 01:54 pm SE 8.9 12.0----29.90- 83.1 79.2----
2024-05-29 01:48 pm SE 8.0 9.9----29.91- 83.3 79.2----
2024-05-29 01:42 pm SE 8.0 8.9----29.91- 82.8 79.0----
2024-05-29 01:36 pmESE 6.0 7.0----29.91- 82.6 78.6----
2024-05-29 01:30 pm SE 5.1 6.0----29.92- 82.6 78.8----
2024-05-29 01:24 pm SE 4.1 6.0----29.93- 82.6 79.0----
2024-05-29 01:18 pmESE 2.9 4.1----29.93- 82.6 78.8----
2024-05-29 01:12 pmESE 2.9 4.1----29.93- 82.6 78.6----
2024-05-29 01:06 pmESE 1.9 2.9----29.93- 82.6 78.8----
2024-05-29 01:00 pm E 1.9 2.9----29.94+0.04 82.4 78.6----
2024-05-29 12:54 pm E 1.9 2.9----29.94- 82.4 78.6----